Location: Gro�bocka
(50.8204°N, 11.9702°E)
Time: 07:53:24
(UTC+00:00)

Ariane Rocket - Pass Details

Date: 29 October 2020
Orbit: 759 x 771 km, 98.7° (Epoch: 01 December)

Event Time Altitude Azimuth Distance (km) Brightness Sun altitude
Exits shadow 17:53:39 31° 53° (NE) 1,338 3.8 -19.7°
Drops below altitude 10° 17:57:43 10° 1° (N) 2,325 5.5 -20.4°
Sets 18:00:14 0° 352° (N) 3,255 6.4 -20.8°
